Home > Time Zones > World Clock > Weather > Japan > Tokyo > Past weeks

Flag for Japan Weather past 2 weeks in Tokyo, Japan

Now
61 °F

Cool.


Feels Like: 61 °F
Forecast: 52 / 67 °F
Wind: 13 mph from South

Location: Tokyo

Current Time: Mar 31, 2015 at 9:19:33 PM

Latest Report: Mar 31, 2015 at 8:00 PM


Visibility: N/A

Pressure: 29.98 "Hg

Humidity: 61%

Dew point: 48 °F

Location of TokyoLocation

Historic Weather in Tokyo — Graph

°F

Tokyo temperature yesterday

Maximum temperature yesterday: 71 °F (at 2:00 PM)
Minimum temperature yesterday: 51 °F (at 4:00 AM)
Average temperature yesterday: 61 °F

Past Weeks' High & Low Weather Summary

 TemperatureHumidityPressure
High74 °F (Mar 31, 12:00 PM)98% (Mar 17, 3:00 AM)30.48 "Hg (Mar 17, 3:00 AM)
Low38 °F (Mar 25, 5:00 AM)16% (Mar 23, 10:00 AM)29.69 "Hg (Mar 19, 2:00 PM)
Average54 °F57%30.06 "Hg
* Reported Mar 16 8:00 PM — Mar 31 8:00 PM, Tokyo, Weather by CustomWeather, © 2015

Note: Actual official high and low records may vary slightly from our data, if they occured in-between our weather recording intervals... More about our weather records

Advertising

Tokyo weather history for previous 24 hours

 ConditionsComfort  
Time TempWeatherWind HumidityBarometerVisibility
8:00 PM
Tue, Mar 31
61 °FCool.13 mph61%29.98 "HgN/A
7:00 PM62 °FCool.13 mph61%29.97 "HgN/A
6:00 PM63 °FPassing clouds.14 mph53%29.97 "Hg12 mi
5:00 PM65 °FMild.14 mph45%29.97 "HgN/A
4:00 PM69 °FMild.13 mph36%29.97 "HgN/A
3:00 PM72 °FPassing clouds.15 mph37%29.98 "Hg16 mi
2:00 PM72 °FMild.20 mph35%30.01 "HgN/A
1:00 PM72 °FMild.21 mph33%30.03 "HgN/A
12:00 PM74 °FPassing clouds.15 mph35%30.07 "Hg16 mi
11:00 AM70 °FMild.12 mph32%30.10 "HgN/A
10:00 AM68 °FMild.13 mph38%30.14 "HgN/A
9:00 AM64 °FPartly sunny.8 mph57%30.15 "Hg6 mi
8:00 AM58 °FCool.2 mph64%30.16 "HgN/A
7:00 AM54 °FCool.3 mph72%30.17 "HgN/A
6:00 AM51 °FFog.6 mph78%30.17 "Hg6 mi
5:00 AM50 °FCool.7 mph80%30.16 "HgN/A
4:00 AM53 °FCool.6 mph81%30.14 "HgN/A
3:00 AM57 °FClear.6 mph78%30.13 "Hg12 mi
2:00 AM58 °FCool.9 mph78%30.14 "HgN/A
1:00 AM58 °FCool.8 mph81%30.15 "HgN/A
12:00 AM58 °FCool.9 mph79%30.16 "HgN/A
11:00 PM
Mon, Mar 30
58 °FCool.8 mph77%30.15 "HgN/A
10:00 PM60 °FCool.8 mph75%30.15 "HgN/A
9:00 PM59 °FClear.7 mph72%30.15 "Hg9 mi
Weather by CustomWeather, © 2015

See weather overviewHow to use our weather pages